Time,TemperatureF,DewpointF,PressureIn,WindDirection,WindDirectionDegrees,WindSpeedMPH,WindSpeedGustMPH,Humidity,HourlyPrecipIn,Conditions,Clouds,dailyrainin,SoftwareType,DateUTC
2013-04-14 00:08:00,49.9,47.0,29.84,WSW,256,0.0,1.0,91,0.00,,,0.00,weatherlink.com 1.10,2013-04-14 04:08:00,
2013-04-14 00:23:00,49.3,47.0,29.84,WSW,256,0.0,1.0,91,0.00,,,0.00,weatherlink.com 1.10,2013-04-14 04:23:00,
2013-04-14 00:38:00,48.8,47.0,29.84,WSW,256,0.0,0.0,93,0.00,,,0.00,weatherlink.com 1.10,2013-04-14 04:38:00,
2013-04-14 00:53:00,48.9,47.0,29.84,South,174,0.0,1.0,93,0.00,,,0.00,weatherlink.com 1.10,2013-04-14 04:53:00,
2013-04-14 01:09:00,48.7,47.0,29.84,SW,214,0.0,0.0,93,0.00,,,0.00,weatherlink.com 1.10,2013-04-14 05:09:00,
2013-04-14 01:24:00,48.5,47.0,29.84,SW,214,0.0,0.0,93,0.00,,,0.00,weatherlink.com 1.10,2013-04-14 05:24:00,
2013-04-14 01:39:00,48.1,46.0,29.84,SW,214,0.0,0.0,93,0.00,,,0.00,weatherlink.com 1.10,2013-04-14 05:39:00,
2013-04-14 01:54:00,47.8,46.0,29.84,SW,214,0.0,0.0,94,0.00,,,0.00,weatherlink.com 1.10,2013-04-14 05:54:00,
2013-04-14 02:09:00,47.5,46.0,29.84,SW,215,0.0,0.0,94,0.00,,,0.00,weatherlink.com 1.10,2013-04-14 06:09:00,
2013-04-14 02:24:00,47.3,46.0,29.83,SW,221,0.0,0.0,94,0.00,,,0.00,weatherlink.com 1.10,2013-04-14 06:24:00,
2013-04-14 02:39:00,47.3,46.0,29.84,SW,233,0.0,0.0,94,0.00,,,0.00,weatherlink.com 1.10,2013-04-14 06:39:00,
2013-04-14 02:54:00,47.3,46.0,29.84,SW,236,0.0,0.0,94,0.00,,,0.00,weatherlink.com 1.10,2013-04-14 06:54:00,
2013-04-14 03:10:00,47.2,46.0,29.84,SW,236,0.0,0.0,95,0.00,,,0.00,weatherlink.com 1.10,2013-04-14 07:10:00,
2013-04-14 03:24:00,47.2,46.0,29.84,SW,233,0.0,1.0,95,0.00,,,0.00,weatherlink.com 1.10,2013-04-14 07:24:00,
2013-04-14 03:41:00,47.9,46.0,29.84,SW,214,0.0,1.0,94,0.00,,,0.00,weatherlink.com 1.10,2013-04-14 07:41:00,
2013-04-14 03:55:00,47.5,46.0,29.84,SW,220,0.0,1.0,93,0.00,,,0.00,weatherlink.com 1.10,2013-04-14 07:55:00,
2013-04-14 04:12:00,47.1,45.0,29.84,SW,233,0.0,1.0,93,0.00,,,0.00,weatherlink.com 1.10,2013-04-14 08:12:00,
2013-04-14 04:25:00,46.9,45.0,29.85,WSW,238,0.0,1.0,94,0.00,,,0.00,weatherlink.com 1.10,2013-04-14 08:25:00,
2013-04-14 04:41:00,46.7,45.0,29.85,West,259,0.0,1.0,94,0.00,,,0.00,weatherlink.com 1.10,2013-04-14 08:41:00,
2013-04-14 04:55:00,46.5,45.0,29.85,WSW,258,0.0,0.0,95,0.00,,,0.00,weatherlink.com 1.10,2013-04-14 08:55:00,
2013-04-14 05:11:00,46.1,45.0,29.85,SW,222,0.0,1.0,95,0.00,,,0.00,weatherlink.com 1.10,2013-04-14 09:11:00,
2013-04-14 05:26:00,46.0,45.0,29.86,SW,232,0.0,0.0,95,0.00,,,0.00,weatherlink.com 1.10,2013-04-14 09:26:00,
2013-04-14 05:41:00,45.9,45.0,29.86,WSW,250,0.0,1.0,95,0.00,,,0.00,weatherlink.com 1.10,2013-04-14 09:41:00,
2013-04-14 05:56:00,45.9,45.0,29.87,NNW,343,0.0,1.0,95,0.00,,,0.00,weatherlink.com 1.10,2013-04-14 09:56:00,
2013-04-14 06:11:00,46.1,45.0,29.87,West,270,0.0,1.0,95,0.00,,,0.00,weatherlink.com 1.10,2013-04-14 10:11:00,
2013-04-14 06:26:00,45.9,45.0,29.87,West,270,0.0,0.0,95,0.00,,,0.00,weatherlink.com 1.10,2013-04-14 10:26:00,
2013-04-14 06:42:00,44.9,43.0,29.88,West,263,0.0,0.0,94,0.00,,,0.00,weatherlink.com 1.10,2013-04-14 10:42:00,
2013-04-14 06:56:00,-999.0,-99.9,29.88,North,-999,-999.0,-999.0,-999,0.00,,,0.00,weatherlink.com 1.10,2013-04-14 10:56:00,
2013-04-14 07:12:00,46.9,46.0,29.89,SSW,201,0.0,0.0,95,0.00,,,0.00,weatherlink.com 1.10,2013-04-14 11:12:00,
2013-04-14 07:27:00,48.0,47.0,29.89,SSW,197,1.0,2.0,95,0.00,,,0.00,weatherlink.com 1.10,2013-04-14 11:27:00,
2013-04-14 07:42:00,49.7,48.0,29.89,SSW,195,0.0,1.0,95,0.00,,,0.00,weatherlink.com 1.10,2013-04-14 11:42:00,
2013-04-14 07:57:00,52.1,50.0,29.90,SW,225,0.0,1.0,93,0.00,,,0.00,weatherlink.com 1.10,2013-04-14 11:57:00,
2013-04-14 08:12:00,55.0,53.0,29.91,SSW,210,1.0,2.0,91,0.00,,,0.00,weatherlink.com 1.10,2013-04-14 12:12:00,
2013-04-14 08:28:00,57.1,54.0,29.91,NW,314,0.0,1.0,89,0.00,,,0.00,weatherlink.com 1.10,2013-04-14 12:28:00,
2013-04-14 08:43:00,58.3,55.0,29.92,West,271,0.0,3.0,87,0.00,,,0.00,weatherlink.com 1.10,2013-04-14 12:43:00,
2013-04-14 08:58:00,60.3,54.0,29.92,WSW,253,0.0,3.0,81,0.00,,,0.00,weatherlink.com 1.10,2013-04-14 12:58:00,
2013-04-14 09:13:00,62.0,55.0,29.92,WNW,295,1.0,3.0,78,0.00,,,0.00,weatherlink.com 1.10,2013-04-14 13:13:00,
2013-04-14 09:28:00,64.3,57.0,29.92,North,355,3.0,3.0,76,0.00,,,0.00,weatherlink.com 1.10,2013-04-14 13:28:00,
2013-04-14 09:43:00,65.4,57.0,29.92,North,5,1.0,4.0,74,0.00,,,0.00,weatherlink.com 1.10,2013-04-14 13:43:00,
2013-04-14 09:58:00,67.3,56.0,29.92,South,169,0.0,3.0,68,0.00,,,0.00,weatherlink.com 1.10,2013-04-14 13:58:00,
2013-04-14 10:14:00,69.6,55.0,29.92,SW,218,1.0,2.0,61,0.00,,,0.00,weatherlink.com 1.10,2013-04-14 14:14:00,
2013-04-14 10:29:00,70.4,55.0,29.93,SW,214,2.0,2.0,58,0.00,,,0.00,weatherlink.com 1.10,2013-04-14 14:29:00,
2013-04-14 10:44:00,72.2,54.0,29.93,West,259,0.0,2.0,53,0.00,,,0.00,weatherlink.com 1.10,2013-04-14 14:44:00,
2013-04-14 10:59:00,73.1,53.0,29.92,SE,126,1.0,2.0,50,0.00,,,0.00,weatherlink.com 1.10,2013-04-14 14:59:00,
2013-04-14 11:14:00,73.6,51.0,29.92,ENE,76,1.0,4.0,45,0.00,,,0.00,weatherlink.com 1.10,2013-04-14 15:14:00,
2013-04-14 11:29:00,73.3,53.0,29.92,South,184,4.0,6.0,50,0.00,,,0.00,weatherlink.com 1.10,2013-04-14 15:29:00,
2013-04-14 11:45:00,74.6,51.0,29.92,ENE,70,3.0,5.0,43,0.00,,,0.00,weatherlink.com 1.10,2013-04-14 15:45:00,
2013-04-14 12:02:00,76.0,49.0,29.91,ENE,63,1.0,4.0,39,0.00,,,0.00,weatherlink.com 1.10,2013-04-14 16:02:00,
2013-04-14 12:15:00,75.3,44.0,29.91,East,87,4.0,8.0,33,0.00,,,0.00,weatherlink.com 1.10,2013-04-14 16:15:00,
2013-04-14 12:31:00,76.9,43.0,29.90,South,188,2.0,7.0,30,0.00,,,0.00,weatherlink.com 1.10,2013-04-14 16:31:00,
2013-04-14 12:45:00,76.5,43.0,29.89,North,3,4.0,10.0,30,0.00,,,0.00,weatherlink.com 1.10,2013-04-14 16:45:00,
2013-04-14 13:02:00,76.7,45.0,29.89,SE,146,5.0,9.0,32,0.00,,,0.00,weatherlink.com 1.10,2013-04-14 17:02:00,
2013-04-14 13:16:00,78.7,43.0,29.89,SSE,162,2.0,5.0,28,0.00,,,0.00,weatherlink.com 1.10,2013-04-14 17:16:00,
2013-04-14 13:31:00,76.8,54.0,29.90,SW,214,10.0,16.0,46,0.00,,,0.00,weatherlink.com 1.10,2013-04-14 17:31:00,
2013-04-14 13:46:00,75.9,55.0,29.89,South,187,7.0,14.0,48,0.00,,,0.00,weatherlink.com 1.10,2013-04-14 17:46:00,
2013-04-14 14:02:00,75.1,52.0,29.90,SSW,200,12.0,14.0,45,0.00,,,0.00,weatherlink.com 1.10,2013-04-14 18:02:00,
2013-04-14 14:16:00,74.9,53.0,29.89,South,190,8.0,15.0,46,0.00,,,0.00,weatherlink.com 1.10,2013-04-14 18:16:00,
2013-04-14 14:31:00,74.3,48.0,29.89,SSE,167,5.0,13.0,40,0.00,,,0.00,weatherlink.com 1.10,2013-04-14 18:31:00,
2013-04-14 14:46:00,75.0,50.0,29.89,SSE,165,11.0,17.0,41,0.00,,,0.00,weatherlink.com 1.10,2013-04-14 18:46:00,
2013-04-14 15:02:00,75.7,48.0,29.89,SSW,210,6.0,12.0,37,0.00,,,0.00,weatherlink.com 1.10,2013-04-14 19:02:00,
2013-04-14 15:16:00,74.8,46.0,29.89,SW,217,11.0,12.0,36,0.00,,,0.00,weatherlink.com 1.10,2013-04-14 19:16:00,
2013-04-14 15:32:00,74.4,44.0,29.88,SSW,204,7.0,16.0,34,0.00,,,0.00,weatherlink.com 1.10,2013-04-14 19:32:00,
2013-04-14 15:47:00,74.5,44.0,29.87,SE,144,7.0,13.0,34,0.00,,,0.00,weatherlink.com 1.10,2013-04-14 19:47:00,
2013-04-14 16:02:00,74.1,45.0,29.87,SSE,148,7.0,12.0,36,0.00,,,0.00,weatherlink.com 1.10,2013-04-14 20:02:00,
2013-04-14 16:17:00,74.3,44.0,29.88,SSW,201,11.0,13.0,34,0.00,,,0.00,weatherlink.com 1.10,2013-04-14 20:17:00,
2013-04-14 16:32:00,74.4,44.0,29.88,SSW,205,11.0,14.0,34,0.00,,,0.00,weatherlink.com 1.10,2013-04-14 20:32:00,
2013-04-14 16:47:00,74.4,43.0,29.88,South,187,5.0,11.0,33,0.00,,,0.00,weatherlink.com 1.10,2013-04-14 20:47:00,
2013-04-14 17:03:00,74.0,45.0,29.88,SSW,210,9.0,13.0,35,0.00,,,0.00,weatherlink.com 1.10,2013-04-14 21:03:00,
2013-04-14 17:18:00,73.3,45.0,29.88,South,191,4.0,12.0,37,0.00,,,0.00,weatherlink.com 1.10,2013-04-14 21:18:00,
2013-04-14 17:33:00,72.9,46.0,29.89,SSW,198,5.0,11.0,39,0.00,,,0.00,weatherlink.com 1.10,2013-04-14 21:33:00,
2013-04-14 17:48:00,72.1,50.0,29.89,SSW,198,4.0,14.0,46,0.00,,,0.00,weatherlink.com 1.10,2013-04-14 21:48:00,
2013-04-14 18:03:00,71.5,51.0,29.89,South,190,5.0,13.0,49,0.00,,,0.00,weatherlink.com 1.10,2013-04-14 22:03:00,
2013-04-14 18:18:00,71.2,52.0,29.89,SW,219,5.0,10.0,51,0.00,,,0.00,weatherlink.com 1.10,2013-04-14 22:18:00,
2013-04-14 18:33:00,70.7,52.0,29.90,SW,217,7.0,8.0,52,0.00,,,0.00,weatherlink.com 1.10,2013-04-14 22:33:00,
2013-04-14 18:48:00,70.2,52.0,29.91,SSW,212,3.0,7.0,53,0.00,,,0.00,weatherlink.com 1.10,2013-04-14 22:48:00,
2013-04-14 19:04:00,69.8,53.0,29.91,SW,232,5.0,5.0,55,0.00,,,0.00,weatherlink.com 1.10,2013-04-14 23:04:00,
2013-04-14 19:19:00,68.9,53.0,29.91,SW,232,3.0,4.0,57,0.00,,,0.00,weatherlink.com 1.10,2013-04-14 23:19:00,
2013-04-14 19:34:00,68.2,53.0,29.91,SW,219,2.0,4.0,59,0.00,,,0.00,weatherlink.com 1.10,2013-04-14 23:34:00,
2013-04-14 19:49:00,67.6,54.0,29.91,SSW,205,2.0,4.0,61,0.00,,,0.00,weatherlink.com 1.10,2013-04-14 23:49:00,
2013-04-14 20:04:00,67.3,54.0,29.91,SSW,201,2.0,4.0,62,0.00,,,0.00,weatherlink.com 1.10,2013-04-15 00:04:00,
2013-04-14 20:19:00,66.9,53.0,29.91,ESE,119,0.0,4.0,62,0.00,,,0.00,weatherlink.com 1.10,2013-04-15 00:19:00,
2013-04-14 20:34:00,66.4,54.0,29.91,SSE,165,2.0,3.0,65,0.00,,,0.00,weatherlink.com 1.10,2013-04-15 00:34:00,
2013-04-14 20:49:00,65.9,54.0,29.92,South,174,1.0,3.0,66,0.00,,,0.00,weatherlink.com 1.10,2013-04-15 00:49:00,
2013-04-14 21:05:00,65.4,54.0,29.92,SSE,152,0.0,3.0,67,0.00,,,0.00,weatherlink.com 1.10,2013-04-15 01:05:00,
2013-04-14 21:35:00,64.9,55.0,29.91,East,101,1.0,2.0,70,0.00,,,0.00,weatherlink.com 1.10,2013-04-15 01:35:00,
2013-04-14 21:51:00,64.7,55.0,29.89,East,94,1.0,5.0,72,0.00,,,0.00,weatherlink.com 1.10,2013-04-15 01:51:00,
2013-04-14 22:06:00,64.6,56.0,29.88,SSW,194,0.0,5.0,73,0.00,,,0.00,weatherlink.com 1.10,2013-04-15 02:06:00,
2013-04-14 22:21:00,64.3,56.0,29.89,SSW,201,1.0,3.0,74,0.00,,,0.00,weatherlink.com 1.10,2013-04-15 02:21:00,
2013-04-14 22:35:00,64.1,56.0,29.89,SE,138,1.0,1.0,74,0.00,,,0.00,weatherlink.com 1.10,2013-04-15 02:35:00,
2013-04-14 22:51:00,63.7,56.0,29.89,South,191,2.0,4.0,75,0.00,,,0.00,weatherlink.com 1.10,2013-04-15 02:51:00,
2013-04-14 23:06:00,63.3,56.0,29.90,South,172,0.0,3.0,76,0.00,,,0.00,weatherlink.com 1.10,2013-04-15 03:06:00,
2013-04-14 23:21:00,63.0,56.0,29.91,SSW,205,3.0,4.0,78,0.00,,,0.00,weatherlink.com 1.10,2013-04-15 03:21:00,
2013-04-14 23:35:00,63.2,57.0,29.92,SSE,160,1.0,5.0,79,0.00,,,0.00,weatherlink.com 1.10,2013-04-15 03:35:00,
2013-04-14 23:51:00,63.2,57.0,29.89,ENE,72,4.0,4.0,79,0.00,,,0.00,weatherlink.com 1.10,2013-04-15 03:51:00,